Regional & State Weather Roundups


262 
ASUS43 KFSD 161402
RWRFSD
WEATHER ROUNDUP FOR SE SOUTH DAKOTA/SW MINNESOTA/NW IOWA
NATIONAL WEATHER SERVICE SIOUX FALLS SD
800 AM CST SAT FEB 16 2019
NOTE: "FAIR" INDICATES FEW OR NO CLOUDS BELOW 12,000 FEET WITH NO
SIGNIFICANT WEATHER AND OR OBSTRUCTIONS TO VISIBILITY.
SDZ038>040-050-052>070-161500-
SOUTHEAST SOUTH DAKOTA
  
CITY           SKY/WX    TMP DP  RH WIND       PRES   REMARKS
BROOKINGS      CLOUDY     6   0  76 SE8       30.02F WCI  -7          
CHAMBERLAIN    CLOUDY    14  10  81 SE14      29.91F WCI   0          
HURON          CLOUDY    11   4  73 SE12      30.00F WCI  -3          
MADISON        CLOUDY     7   7 100 SE9       30.00F WCI  -7          
MITCHELL       CLOUDY    12   5  73 SE13      30.01F WCI  -3          
SIOUX FALLS    CLOUDY     9   3  77 E7        30.04R WCI  -2          
WINNER         CLOUDY    16  10  77 SE15      29.83F WCI   1          
YANKTON        FLURRIES   5   2  87 E3        30.04S                  
$$
MNZ071-072-080-081-089-090-097-098-161500-
SOUTHWEST MINNESOTA
  
CITY           SKY/WX    TMP DP  RH WIND       PRES   REMARKS
FAIRMONT       CLOUDY     1  -4  79 NE3       30.11F                  
JACKSON        CLOUDY     3   0  85 E5        30.07S WCI  -6          
LUVERNE        CLOUDY     9   1  72 SE5       30.07R WCI   0          
MARSHALL       CLOUDY     2  -3  80 CALM      30.10F                  
MONTEVIDEO     CLOUDY     0  -6  78 SE3       30.11F                  
PIPESTONE      CLOUDY     7   1  78 CALM      30.02R                  
REDWOOD FALLS  CLOUDY     0  -5  79 E3        30.12F                  
TRACY          CLOUDY     3  -1  82 CALM      30.08R                  
WINDOM         CLOUDY     3   0  85 E5        30.06S WCI  -6          
WORTHINGTON    CLOUDY     3  -1  83 E5        30.06R WCI  -6          
$$
IAZ001>003-012>014-020>022-031-032-NEZ013-014-SDZ071-161500-
NORTHWEST IOWA
  
CITY           SKY/WX    TMP DP  RH WIND       PRES   REMARKS
CHEROKEE       CLOUDY    -1  -4  86 CALM      30.09S                  
DENISON        CLOUDY     0  -2  92 NE5       30.09S WCI -10          
ESTHERVILLE    CLOUDY     2  -2  83 E7        30.07F WCI -11          
ORANGE CITY    CLOUDY     3   1  92 CALM      30.06S                  
SHELDON        CLOUDY     5   5 100 E8        30.05S WCI  -8          
SIOUX CITY     CLOUDY     2  -2  83 E6        30.07F WCI  -9          
SPENCER        CLOUDY     5  -1  76 E6        30.08R WCI  -6          
STORM LAKE     CLOUDY     0  -2  92 E6        30.06S WCI -12          
$$
 
ABBREVIATIONS USED IN REMARKS
   TC - TEMPERATURE IN CELSIUS
  WCI - WIND CHILL INDEX
   HX - HEAT INDEX
  VSB - VISIBILITY
  

264 
ASUS43 KFSD 161402
RWRSD 
WEATHER ROUNDUP FOR SOUTH DAKOTA
NATIONAL WEATHER SERVICE SIOUX FALLS SD
800 AM CST SAT FEB 16 2019
NOTE: "FAIR" INDICATES FEW OR NO CLOUDS BELOW 12,000 FEET WITH NO
SIGNIFICANT WEATHER AND/OR OBSTRUCTIONS TO VISIBILITY.
SDZ001>005-009-010-012>017-161500-
NORTHWEST AND NORTH CENTRAL SOUTH DAKOTA
  
CITY           SKY/WX    TMP DP  RH WIND       PRES   REMARKS
BUFFALO          N/A      6   1  80 E7        29.59F WCI  -6          
FAITH            N/A      7   5  91 SE17G26   29.69F WCI -12          
MOBRIDGE       CLOUDY     8   1  73 SE22      29.83F WCI -12          
$$
 
SDZ012>016-024>037-041>051-057-063-072>074-161500-
SOUTHWEST AND SOUTH CENTRAL SOUTH DAKOTA
  
CITY           SKY/WX    TMP DP  RH WIND       PRES   REMARKS
RAPID CTY ARPT FLURRIES  12   8  84 SE13      29.58F WCI  -3          
PIERRE         CLOUDY    10   7  87 E16       29.85F WCI  -7          
CUSTER         CLOUDY    25  22  88 CALM      29.47F                  
ELLSWORTH AFB  MOCLDY    13  12  98 E5        29.56  WCI   5          
PHILIP         CLOUDY    14  11  87 E10       29.73S WCI   1          
PINE RIDGE     CLOUDY   N/A N/A N/A S8        29.60F                  
SPEARFISH      CLOUDY     5   1  85 W8        29.50R FOG     WCI  -8  
WINNER         CLOUDY    16  10  77 SE15      29.83F WCI   1          
$$
 
SDZ004>011-016>023-039-040-161500-
NORTHEAST SOUTH DAKOTA
  
CITY           SKY/WX    TMP DP  RH WIND       PRES   REMARKS
ABERDEEN       CLOUDY     5   0  79 E8        30.01F WCI  -8          
WATERTOWN      CLOUDY     6   0  76 SE8       29.98F WCI  -7          
BROOKINGS      CLOUDY     6   0  76 SE8       30.02F WCI  -7          
SISSETON         N/A      0  -4  83 SE5       30.07F WCI -10          
$$
 
SDZ017-020-022-023-036>040-048>070-161500-
SOUTHEAST SOUTH DAKOTA
  
CITY           SKY/WX    TMP DP  RH WIND       PRES   REMARKS
SIOUX FALLS    CLOUDY     9   3  77 E7        30.04R WCI  -2          
HURON          CLOUDY    11   4  73 SE12      30.00F WCI  -3          
CHAMBERLAIN    CLOUDY    14  10  81 SE14      29.91F WCI   0          
MADISON        CLOUDY     7   7 100 SE9       30.00F WCI  -7          
MITCHELL       CLOUDY    12   5  73 SE13      30.01F WCI  -3          
YANKTON        FLURRIES   5   2  87 E3        30.04S                  
$$
 
ABBREVIATIONS USED IN REMARKS
   TC - TEMPERATURE IN CELSIUS
  WCI - WIND CHILL INDEX
   HX - HEAT INDEX
  VSB - VISIBILITY